Date,TemperatureHighF,TemperatureAvgF,TemperatureLowF,DewpointHighF,DewpointAvgF,DewpointLowF,HumidityHigh,HumidityAvg,HumidityLow,PressureMaxIn,PressureMinIn,WindSpeedMaxMPH,WindSpeedAvgMPH,GustSpeedMaxMPH,PrecipitationSumIn
2013-1-1,44.2,27.6,15.8,25.0,14.4,5.1,70,58,39,29.69,29.48,3,0,9,0.09
2013-1-2,15.8,14.0,14.0,5.3,3.8,3.8,63,63,62,29.86,29.65,0,0,2,0.00
2013-1-3,14.0,11.9,0.0,3.8,3.8,3.8,63,54,63,29.90,29.73,0,0,0,0.00
2013-1-4,0.0,0.0,0.0,3.8,3.8,3.8,0,0,100,29.73,29.57,0,0,0,0.00
2013-1-5,0.0,0.0,0.0,3.8,3.8,3.8,0,0,100,30.01,29.61,0,0,0,0.00
2013-1-6,0.0,0.0,0.0,3.8,3.8,3.8,0,0,100,29.98,29.69,0,0,0,0.00
2013-1-8,0.0,0.0,0.0,3.8,3.8,3.8,0,0,100,30.12,30.01,0,0,0,0.00
2013-1-9,0.0,0.0,0.0,3.8,3.8,3.8,0,0,100,30.15,29.77,0,0,0,0.00
2013-1-10,0.0,0.0,0.0,3.8,3.8,3.8,0,0,100,30.30,29.81,0,0,0,0.00
2013-1-11,0.0,0.0,0.0,3.8,3.8,3.8,0,0,100,30.30,29.96,0,0,0,0.00
2013-1-12,0.0,0.0,0.0,3.8,3.8,3.8,0,0,100,29.99,29.88,0,0,0,0.00
2013-1-13,0.0,0.0,0.0,3.8,3.8,3.8,0,0,100,29.91,29.74,0,0,0,0.00
2013-1-14,0.0,0.0,0.0,3.8,3.8,3.8,0,0,100,30.01,29.61,0,0,0,0.00
2013-1-15,0.0,0.0,0.0,3.8,3.8,3.8,0,0,100,30.08,29.98,0,0,0,0.00
2013-1-16,0.0,0.0,0.0,3.8,3.8,3.8,0,0,100,30.00,29.58,0,0,0,0.00
2013-1-17,0.0,0.0,0.0,3.8,3.8,3.8,0,0,100,29.85,29.59,0,0,0,0.00
2013-1-18,0.0,0.0,0.0,3.8,3.8,3.8,0,0,100,30.20,29.80,0,0,0,0.00
2013-1-19,0.0,0.0,0.0,3.8,3.8,3.8,0,0,100,30.12,29.63,0,0,0,0.00
2013-1-20,0.0,0.0,0.0,3.8,3.8,3.8,0,0,100,29.63,29.31,0,0,0,0.00
2013-1-21,0.0,0.0,0.0,3.8,3.8,3.8,0,0,100,29.78,29.55,0,0,0,0.00
2013-1-22,0.0,0.0,0.0,3.8,3.8,3.8,0,0,100,29.83,29.51,0,0,0,0.00
2013-1-23,0.0,0.0,0.0,3.8,3.8,3.8,0,0,100,29.89,29.81,0,0,0,0.00
2013-1-24,0.0,0.0,0.0,3.8,3.8,3.8,0,0,100,29.99,29.82,0,0,0,0.00
2013-1-25,0.0,0.0,0.0,3.8,3.8,3.8,0,0,100,30.06,29.80,0,0,0,0.00
2013-1-26,0.0,0.0,0.0,3.8,3.8,3.8,0,0,100,29.87,29.75,0,0,0,0.00
2013-1-27,0.0,0.0,0.0,3.8,3.8,3.8,0,0,100,30.22,30.12,0,0,0,0.00
2013-1-28,0.0,0.0,0.0,3.8,3.8,3.8,0,0,100,30.20,29.77,0,0,0,0.00
2013-1-29,0.0,0.0,0.0,3.8,3.8,3.8,0,0,100,29.95,29.77,0,0,0,0.00
2013-1-30,0.0,0.0,0.0,3.8,3.8,3.8,0,0,100,29.91,29.81,0,0,0,0.00
2013-2-5,0.0,0.0,0.0,3.8,3.8,3.8,0,0,100,29.71,29.68,0,0,0,0.00
2013-2-6,0.0,0.0,0.0,3.8,3.8,3.8,0,0,100,30.05,29.67,0,0,0,0.00
2013-2-7,0.0,0.0,0.0,3.8,3.8,3.8,0,0,100,30.27,30.05,0,0,0,0.00
2013-2-8,0.0,0.0,0.0,3.8,3.8,3.8,0,0,100,30.23,29.38,0,0,0,0.00
2013-2-9,0.0,0.0,0.0,3.8,3.8,3.8,0,0,100,29.96,29.35,0,0,0,0.00
2013-2-10,0.0,0.0,0.0,3.8,3.8,3.8,0,0,100,30.14,29.96,0,0,0,0.00
2013-2-11,0.0,0.0,0.0,3.8,3.8,3.8,0,0,100,30.10,29.37,0,0,0,0.00
2013-2-12,0.0,0.0,0.0,3.8,3.8,3.8,0,0,100,29.65,29.37,0,0,0,0.00
2013-2-13,0.0,0.0,0.0,3.8,3.8,3.8,0,0,100,29.62,29.45,0,0,0,0.00
2013-2-14,0.0,0.0,0.0,3.8,3.8,3.8,0,0,100,29.65,29.47,0,0,0,0.00
2013-2-17,0.0,0.0,0.0,3.8,3.8,3.8,0,0,100,29.46,29.17,0,0,0,0.00
2013-2-18,0.0,0.0,0.0,3.8,3.8,3.8,0,0,100,29.92,29.46,0,0,0,0.00
2013-2-19,0.0,0.0,0.0,3.8,3.8,3.8,0,0,100,29.93,29.34,0,0,0,0.00
2013-2-20,0.0,0.0,0.0,3.8,3.8,3.8,0,0,100,29.99,29.31,0,0,0,0.00
2013-2-21,0.0,0.0,0.0,3.8,3.8,3.8,0,0,100,30.06,29.96,0,0,0,0.00
2013-5-26,69.3,53.6,42.4,49.2,36.6,34.1,78,54,36,30.18,29.91,3,0,10,0.01
2013-5-27,76.1,57.7,37.9,40.1,34.6,20.5,87,49,13,30.25,30.14,2,0,10,0.00
2013-5-28,82.6,62.5,40.6,49.0,39.8,25.8,84,50,13,30.31,30.21,2,0,4,0.00
2013-5-29,74.5,64.0,57.6,65.1,58.4,49.0,90,82,68,30.25,30.05,2,0,4,0.64
2013-5-30,86.5,65.6,60.4,73.0,62.2,58.1,94,89,56,30.16,30.10,2,0,4,0.01
2013-5-31,101.7,81.8,63.7,72.2,63.0,55.0,90,61,23,30.17,30.10,2,0,5,0.00
2013-6-1,99.0,83.5,66.0,66.7,61.4,53.6,77,51,23,30.05,29.93,2,0,4,0.00
2013-6-2,95.9,78.5,68.0,69.1,62.9,57.3,82,62,29,29.95,29.79,2,0,7,0.00
2013-6-3,78.1,69.0,64.0,68.4,61.4,53.3,90,78,58,29.93,29.82,1,0,4,0.50
2013-6-4,77.7,64.4,50.0,46.6,43.0,37.7,74,49,25,30.17,29.96,2,0,6,0.50
2013-6-5,83.1,64.8,48.2,50.5,44.1,35.2,82,52,19,30.26,30.16,2,0,5,0.00
2013-6-6,83.7,65.8,52.7,52.6,46.4,39.0,78,53,23,30.26,30.16,3,0,8,0.04
2013-6-7,59.7,56.7,53.4,55.9,52.5,50.3,90,86,78,30.18,29.88,2,0,4,1.13
2013-6-8,81.1,64.9,52.9,63.0,55.8,50.0,90,74,49,30.08,29.70,2,0,9,0.69
2013-6-9,86.2,69.3,55.9,58.5,53.4,49.6,87,61,30,30.24,30.08,2,0,7,0.00
2013-6-10,75.4,63.7,54.7,60.3,55.9,49.9,89,77,52,30.27,30.07,2,0,5,0.61
2013-6-11,65.8,59.9,56.8,59.2,55.6,53.4,90,86,74,30.07,29.63,4,0,8,0.77
2013-6-12,77.2,64.4,57.2,57.4,53.4,49.6,90,69,44,29.90,29.63,3,0,11,0.00
2013-6-13,65.7,57.3,51.4,58.1,52.2,47.1,90,83,74,29.89,29.73,2,0,8,0.74
2013-6-14,74.8,63.6,51.8,58.1,52.9,49.0,91,70,44,29.85,29.70,2,0,5,0.67
2013-6-15,85.5,69.0,54.3,53.0,46.9,35.0,81,51,18,30.01,29.85,2,0,6,0.00
2013-6-16,83.1,68.4,52.9,60.0,52.3,43.6,75,58,29,30.01,29.78,2,0,6,0.00
2013-6-17,92.1,72.0,59.9,63.7,57.3,53.5,88,64,28,29.98,29.83,2,0,8,0.28
2013-6-18,81.1,64.7,59.0,66.2,59.1,55.8,91,83,53,30.01,29.93,3,0,5,0.64
2013-6-19,83.3,66.2,53.8,57.6,51.7,44.1,91,64,27,30.22,29.98,3,0,5,0.09
2013-6-20,87.4,67.9,48.6,55.0,48.6,42.2,87,55,22,30.33,30.22,2,0,6,0.00
2013-6-21,90.0,73.8,58.8,63.1,57.9,51.6,80,60,32,30.32,30.25,1,0,5,0.00
2013-6-22,89.2,75.2,61.3,65.2,57.8,54.4,80,57,32,30.30,30.17,2,0,8,0.00
2013-6-23,97.2,79.5,64.8,70.7,63.2,55.6,74,59,39,30.22,30.06,2,0,5,0.00
2013-7-21,81.1,75.2,70.0,67.1,65.3,64.1,82,72,60,30.05,29.99,0,0,2,0.00
2013-7-22,91.2,74.8,64.4,71.6,65.5,61.6,92,75,45,30.09,29.94,3,0,8,0.00
2013-7-23,71.4,69.8,68.9,70.0,66.8,65.5,95,90,85,29.94,29.75,1,0,3,0.00
2013-7-24,91.8,76.6,66.6,76.2,66.1,53.6,100,73,42,30.03,29.65,2,0,5,0.00
2013-7-25,66.4,60.4,58.6,57.1,53.8,46.1,92,80,61,30.17,30.03,2,0,4,0.00
2013-7-26,75.6,65.2,59.2,68.7,61.7,56.9,95,88,72,30.13,30.02,2,0,6,0.00
2013-7-27,91.8,73.2,58.5,72.7,61.8,56.3,95,71,32,30.13,30.05,2,0,4,0.00
2013-7-28,93.7,75.3,62.6,70.9,64.8,58.7,91,73,36,30.09,30.00,2,0,6,0.00
2013-7-29,95.5,75.1,65.5,72.9,67.5,61.5,93,79,38,30.11,30.01,2,0,6,0.00
2013-7-30,88.5,72.2,60.8,61.9,57.5,49.6,90,64,27,30.17,30.09,2,0,4,0.00
2013-7-31,92.3,68.8,59.9,61.4,56.6,46.8,87,70,22,30.22,30.15,2,0,4,0.00
2013-8-1,89.8,69.7,59.2,69.0,61.4,56.2,92,77,41,30.12,29.93,3,0,7,0.00
2013-8-2,89.4,72.7,64.0,75.2,62.6,55.3,95,74,37,29.95,29.85,1,0,4,0.00
2013-8-3,79.9,69.4,61.9,63.8,61.1,58.3,93,77,51,29.93,29.85,2,0,4,0.00
2013-8-4,87.6,66.5,56.7,59.6,55.5,50.3,89,71,29,29.98,29.83,1,0,3,0.00
2013-8-5,82.6,64.3,53.1,54.2,47.1,33.2,89,60,18,30.12,29.96,2,0,8,0.00
2013-8-6,90.1,65.8,48.6,56.3,48.7,37.0,88,61,17,30.22,30.12,2,0,4,0.00
2013-8-7,90.0,69.5,53.1,64.4,52.8,42.1,90,61,20,30.25,30.16,2,0,6,0.00
2013-8-8,71.1,66.2,64.6,67.5,60.4,56.2,90,82,72,30.19,30.12,2,0,4,0.00
2013-8-9,75.2,72.6,70.5,75.1,71.2,67.0,100,95,85,30.09,29.82,2,0,7,0.00
2013-8-10,88.0,72.9,61.7,71.0,59.1,45.5,100,68,26,30.08,29.87,2,0,9,0.00
2013-8-11,87.4,68.3,52.9,58.6,51.6,42.3,87,60,22,30.16,30.06,2,0,4,0.00
2013-8-12,91.0,71.5,58.1,62.9,55.3,45.6,90,62,22,30.10,29.98,1,0,4,0.00
2013-8-13,73.2,66.4,62.6,68.5,62.2,57.9,88,86,83,29.99,29.87,1,0,3,0.00
2013-8-14,77.4,66.5,56.3,62.1,51.1,44.7,91,60,33,30.04,29.73,2,0,6,0.00
2013-8-15,82.4,67.2,51.6,54.9,49.0,40.9,87,57,23,30.19,30.04,2,0,4,0.00
2013-8-16,86.9,67.3,52.3,58.5,51.0,42.9,86,61,23,30.26,30.18,2,0,6,0.00
2013-8-17,90.0,69.7,53.4,60.6,54.2,47.0,89,63,24,30.34,30.26,2,0,4,0.00
2013-8-18,88.9,69.1,56.8,66.7,58.0,52.6,89,70,30,30.34,30.15,2,0,3,0.00
2013-8-19,87.6,71.9,58.5,64.1,58.1,53.9,90,65,33,30.15,30.01,1,0,4,0.00
2013-8-20,95.5,75.4,61.9,63.6,58.4,45.9,86,60,20,30.16,30.04,1,0,4,0.00
2013-8-21,99.0,75.6,59.5,68.6,59.1,52.7,88,62,22,30.22,30.09,1,0,4,0.00
2013-8-22,91.8,75.5,62.8,70.0,64.8,59.2,88,71,37,30.10,29.89,2,0,4,0.00
2013-8-23,89.2,74.0,62.6,67.6,55.4,44.5,86,57,22,30.19,29.88,2,0,7,0.00
2013-8-24,86.7,67.1,54.7,49.4,44.0,26.8,75,49,12,30.41,30.19,2,0,8,0.00
2013-8-25,55.0,52.0,50.2,50.5,46.8,45.9,87,83,75,30.44,30.37,0,0,2,0.00
2013-8-26,83.1,71.8,63.7,64.1,58.8,52.9,79,64,42,30.26,29.94,1,0,4,0.00
2013-8-27,88.2,74.4,67.3,72.7,65.9,62.5,92,77,48,29.97,29.89,1,0,3,0.00
2013-8-28,97.7,81.7,62.6,71.4,63.1,56.0,92,59,27,30.03,29.90,2,0,4,0.00
2013-8-29,68.4,64.2,61.5,64.0,59.3,56.8,90,84,79,30.14,30.00,2,0,4,0.00
2013-8-30,87.1,70.8,60.6,66.0,61.6,56.7,88,74,44,30.10,29.89,1,0,4,0.00
2013-8-31,81.7,74.7,68.5,72.7,68.9,64.7,90,82,72,29.90,29.84,2,0,6,0.00
2013-9-1,78.1,72.8,68.4,75.0,70.0,65.5,94,91,85,29.94,29.84,1,0,4,0.00
2013-9-2,79.0,73.7,70.9,75.7,71.7,69.3,97,94,87,29.92,29.77,1,0,4,0.00
2013-9-3,88.0,72.2,61.7,75.7,66.8,56.2,100,84,55,29.88,29.76,2,0,4,0.00
2013-9-4,86.2,68.9,57.7,61.8,54.0,47.1,91,64,28,29.99,29.87,2,0,5,0.00
2013-9-5,78.1,62.0,50.7,61.9,50.9,36.8,89,70,30,30.22,29.93,2,0,6,0.00
2013-9-6,80.2,57.4,42.8,46.2,38.0,21.5,84,55,13,30.32,30.16,2,0,4,0.00
2013-9-7,86.5,63.8,45.3,54.9,45.2,31.7,87,58,16,30.16,29.93,2,0,6,0.00
2013-9-8,84.0,65.7,48.4,61.3,48.3,33.9,86,57,28,30.17,29.82,2,0,7,0.00
2013-9-9,78.3,55.4,41.5,48.8,37.5,25.7,85,60,15,30.30,30.16,2,0,4,0.00
2013-9-10,76.1,67.4,55.4,69.3,61.9,47.2,90,83,71,30.22,30.09,2,0,4,0.00
2013-9-11,102.7,81.3,68.0,81.0,69.5,64.4,95,71,33,30.14,29.99,2,0,5,0.00
2013-9-12,91.0,76.9,69.1,74.2,67.6,64.1,90,75,50,30.03,29.84,2,0,7,0.00
2013-9-13,86.2,69.4,58.8,74.8,62.8,54.0,95,81,43,29.83,29.63,2,0,4,0.00
2013-9-14,75.9,60.4,51.3,54.9,49.7,45.6,89,70,36,30.13,29.83,1,0,8,0.00
2013-9-15,79.2,60.1,47.1,57.4,45.5,32.7,90,64,20,30.23,30.12,1,0,3,0.00
2013-9-16,73.8,59.3,46.8,58.9,47.8,34.0,84,67,44,30.31,30.08,2,0,8,0.00
2013-9-17,70.3,49.4,38.7,36.0,32.0,23.1,78,56,17,30.49,30.31,2,0,7,0.00
2013-9-18,82.0,68.0,41.5,55.8,29.9,24.2,84,27,15,30.05,29.45,2,0,4,0.00
2013-9-19,91.6,79.6,53.1,62.0,45.5,32.1,81,36,13,29.85,29.69,2,0,3,0.00
2013-9-20,91.8,77.7,59.5,63.2,50.0,42.2,66,40,18,29.72,29.63,1,0,2,0.00
2013-9-21,72.9,60.5,52.7,56.2,49.8,48.1,90,71,42,29.66,29.63,0,0,1,0.00
2013-9-23,59.2,59.2,59.2,56.2,56.2,56.2,90,90,90,29.65,29.59,0,0,0,0.00
2013-9-24,59.2,28.8,0.0,56.2,56.2,56.2,90,44,90,29.99,29.51,0,0,0,0.00
2013-9-25,0.0,0.0,0.0,56.2,56.2,56.2,0,0,100,30.05,29.93,0,0,0,0.00
2013-9-26,0.0,0.0,0.0,56.2,56.2,56.2,0,0,100,30.19,30.04,0,0,0,0.00
2013-9-27,0.0,0.0,0.0,56.2,56.2,56.2,0,0,100,30.33,30.18,0,0,0,0.00
2013-9-28,0.0,0.0,0.0,56.2,56.2,56.2,0,0,100,30.40,30.32,0,0,0,0.00
2013-9-29,0.0,0.0,0.0,56.2,56.2,56.2,0,0,100,30.33,30.18,0,0,0,0.00
2013-9-30,0.0,0.0,0.0,56.2,56.2,56.2,0,0,100,30.19,30.03,0,0,0,0.00
2013-10-1,0.0,0.0,0.0,56.2,56.2,56.2,0,0,100,30.03,30.00,0,0,0,0.00
2013-10-2,0.0,0.0,0.0,56.2,56.2,56.2,0,0,100,29.95,29.83,0,0,0,0.00
2013-10-3,0.0,0.0,0.0,56.2,56.2,56.2,0,0,100,30.08,29.95,0,0,0,0.00
2013-10-4,0.0,0.0,0.0,56.2,56.2,56.2,0,0,100,30.09,30.02,0,0,0,0.00
2013-10-5,0.0,0.0,0.0,56.2,56.2,56.2,0,0,100,30.11,30.03,0,0,0,0.00
2013-10-6,0.0,0.0,0.0,56.2,56.2,56.2,0,0,100,30.20,30.09,0,0,0,0.00
2013-10-7,0.0,0.0,0.0,56.2,56.2,56.2,0,0,100,30.11,29.78,0,0,0,0.00
2013-10-8,0.0,0.0,0.0,56.2,56.2,56.2,0,0,100,30.36,29.89,0,0,0,0.00
2013-10-9,0.0,0.0,0.0,56.2,56.2,56.2,0,0,100,30.46,30.34,0,0,0,0.00
2013-10-10,0.0,0.0,0.0,56.2,56.2,56.2,0,0,100,30.34,30.26,0,0,0,0.00
2013-11-3,61.3,39.8,0.0,61.1,39.7,31.4,99,99,99,30.40,30.05,0,0,1,0.00
2013-11-4,46.9,34.7,26.8,46.7,34.5,26.6,99,99,99,30.62,30.39,1,0,2,0.00
2013-11-5,50.7,37.0,22.3,47.0,26.6,20.7,99,72,31,30.68,30.48,2,0,4,0.00
2013-11-6,61.0,49.5,39.6,54.6,44.5,36.0,99,87,40,30.40,30.02,2,0,6,0.00
2013-11-7,54.0,54.0,54.0,53.7,53.7,53.7,99,99,99,30.02,29.80,0,0,1,0.00
2013-11-8,0.0,0.0,0.0,53.7,53.7,53.7,0,0,100,30.08,29.87,0,0,0,0.00
2013-11-9,0.0,0.0,0.0,53.7,53.7,53.7,0,0,100,30.19,29.99,0,0,0,0.00
2013-11-10,0.0,0.0,0.0,53.7,53.7,53.7,0,0,100,30.00,29.72,0,0,0,0.00
2013-11-11,0.0,0.0,0.0,53.7,53.7,53.7,0,0,100,30.08,30.06,0,0,0,0.00
2013-11-29,52.3,21.3,17.1,17.5,-2.0,-3.3,42,35,25,30.10,29.91,0,0,0,111.30
2013-11-30,72.9,41.5,12.2,44.5,17.3,-2.2,58,40,17,30.15,29.96,0,0,2,8.46
2013-12-1,66.2,39.8,0.0,65.9,39.6,0.0,99,85,99,29.59,29.31,0,0,2,0.69
2013-12-2,43.5,17.7,0.0,43.3,43.3,43.3,99,40,99,29.38,29.28,0,0,2,0.00
2013-12-3,0.0,0.0,0.0,43.3,43.3,43.3,0,0,100,29.33,29.21,0,0,0,0.00
2013-12-4,73.2,20.6,0.0,73.0,43.1,32.8,99,47,99,29.56,29.32,0,0,2,1.48
2013-12-5,33.1,26.1,0.0,32.8,32.8,32.8,99,78,99,29.57,29.28,0,0,0,0.00
2013-12-6,0.0,0.0,0.0,32.8,32.8,32.8,0,0,100,29.36,29.22,0,0,0,0.00
2013-12-16,33.8,33.8,33.8,33.5,33.5,33.5,99,99,99,30.73,30.60,0,0,0,0.00
2013-12-17,33.8,33.8,33.8,33.5,33.5,33.5,99,99,99,30.59,30.09,0,0,0,0.00
2013-12-18,33.8,33.8,33.8,33.5,33.5,33.5,99,99,99,30.10,29.90,0,0,0,0.00
2013-12-19,33.8,33.8,33.8,33.5,33.5,33.5,99,99,99,30.10,29.90,0,0,0,0.00
2013-12-20,33.8,33.8,33.8,33.5,33.5,33.5,99,99,99,30.46,30.09,0,0,0,0.00
2013-12-21,33.8,33.8,33.8,33.5,33.5,33.5,99,99,99,30.43,30.32,0,0,0,0.00
2013-12-22,33.8,33.8,33.8,33.5,33.5,33.5,99,99,99,30.35,29.87,0,0,0,0.00
2013-12-23,33.8,33.8,33.8,33.5,33.5,33.5,99,99,99,30.18,30.06,0,0,0,0.00
2013-12-24,33.8,33.8,33.8,33.5,33.5,33.5,99,99,99,30.30,30.14,0,0,0,0.00
2013-12-25,33.8,33.8,33.8,33.5,33.5,33.5,99,99,99,30.62,30.29,0,0,0,0.00
2013-12-26,33.8,33.8,33.8,33.5,33.5,33.5,99,99,99,30.57,30.17,0,0,0,0.00
2013-12-27,33.8,33.8,33.8,33.5,33.5,33.5,99,99,99,30.37,30.28,0,0,0,0.00
2013-12-28,33.8,33.8,33.8,33.5,33.5,33.5,99,99,99,30.30,30.08,0,0,0,0.00
2013-12-29,33.8,33.8,33.8,33.5,33.5,33.5,99,99,99,30.12,29.52,0,0,0,0.00
2013-12-30,33.8,12.6,0.0,33.5,33.5,33.5,99,37,99,30.25,29.64,0,0,0,0.00
2013-12-31,0.0,0.0,0.0,33.5,33.5,33.5,0,0,100,30.28,30.10,0,0,0,0.00
2014-1-1,0.0,0.0,0.0,33.5,33.5,33.5,0,0,100,30.46,30.27,0,0,0,0.00
2014-1-2,0.0,0.0,0.0,33.5,33.5,33.5,0,0,100,30.44,29.93,0,0,0,0.00